Theta_e
350 351 353 353 353 354 356 357 361 363 361 355 359 367 364 364 364 363 364 363 364 360 357 360 358 355 361 361 356 356 356 358 357 355 354 351 347 349 349 349 350 350 351 351 351 350 350 352 353 354 351 347 342 342 344 344 345 345 345 343 341 340 340 341 342 342 342 342 342 342 343 344 346 348 349 349 350 350 350 350 350 350 349 349 350 349 348 348 347 347 346 346 347 347 347 345 343
351 352 353 353 353 356 359 360 364 360 358 355 357 367 364 363 365 363 364 363 363 357 356 358 357 356 356 356 354 357 356 354 353 352 352 349 349 350 349 349 349 350 350 351 351 349 350 352 354 354 351 347 341 340 342 340 339 339 339 340 341 341 342 343 342 342 342 342 342 343 344 346 348 349 350 350 349 349 350 350 349 349 349 349 349 348 349 349 348 348 347 346 346 346 348 346 345
351 352 352 353 354 355 359 359 360 358 356 353 356 369 364 364 367 362 362 360 359 355 357 356 356 355 353 358 358 360 357 350 348 349 349 349 351 350 349 350 350 351 349 351 352 350 351 353 354 353 352 350 345 342 342 340 339 339 339 341 343 344 344 343 343 343 343 342 343 344 346 348 349 349 350 349 349 349 349 349 349 349 348 348 348 348 349 350 349 349 347 347 346 346 348 347 347
352 352 352 354 356 358 363 361 363 359 353 351 353 367 365 364 364 359 360 357 356 356 356 356 357 353 356 364 358 357 356 350 348 348 349 350 350 350 349 350 350 350 350 352 353 351 352 353 354 353 352 352 350 349 347 347 346 346 346 345 345 345 344 345 345 344 343 343 344 345 347 349 349 349 349 349 349 349 349 349 349 349 348 348 348 348 349 349 350 349 348 347 346 345 346 347 347
352 352 353 354 359 362 364 361 364 358 353 357 356 364 364 358 361 359 358 356 356 356 355 356 358 353 354 358 354 358 355 349 349 349 350 350 349 349 348 349 349 349 351 352 352 351 351 353 354 353 353 353 353 352 351 350 350 350 348 346 345 346 347 348 346 344 343 344 345 346 347 349 349 349 350 349 349 349 349 348 348 347 347 347 347 347 348 348 350 350 349 347 346 345 345 346 346
351 353 353 353 356 359 362 357 358 361 362 367 362 364 362 356 360 358 357 357 355 355 355 356 357 355 355 353 352 355 352 350 350 349 350 350 349 349 349 349 349 349 350 350 351 351 350 352 353 352 353 353 354 353 351 349 348 348 346 345 347 349 350 350 347 345 344 345 346 347 348 349 350 349 349 349 349 349 348 347 346 346 345 345 345 346 347 348 350 350 349 348 347 346 345 345 346
351 354 353 355 358 357 365 359 359 369 366 364 366 363 358 357 358 357 358 357 357 356 356 356 354 358 359 354 353 352 350 351 349 349 350 350 350 349 349 349 350 349 350 350 350 350 350 351 352 352 352 353 354 353 351 348 349 348 347 348 349 350 350 350 348 346 344 345 347 348 349 349 350 349 348 348 348 348 347 346 344 344 344 343 344 345 345 347 349 350 349 349 347 347 346 345 346
351 355 353 362 366 360 366 365 366 372 363 356 361 360 356 358 357 357 360 357 359 357 355 355 353 361 360 353 357 355 352 352 349 350 350 350 350 350 350 349 350 350 350 350 350 349 350 351 352 352 352 353 353 353 351 349 349 349 350 350 350 350 350 349 347 345 344 346 348 349 349 349 349 348 347 347 347 346 345 342 341 342 342 343 344 344 345 346 347 348 348 348 347 347 346 345 346
349 356 358 365 366 361 363 365 364 363 365 358 354 359 358 356 357 358 359 358 358 356 356 357 355 362 360 355 359 355 352 352 350 350 350 351 351 350 350 349 350 351 351 351 350 350 350 351 352 352 352 352 353 353 352 350 350 350 351 350 350 351 350 349 347 345 344 346 348 349 349 349 349 347 346 346 344 343 341 339 338 340 341 343 343 344 345 346 346 347 347 347 347 348 347 346 346
353 358 361 363 360 357 354 354 357 357 362 360 354 359 358 356 357 357 357 357 356 357 358 357 358 361 358 357 359 355 353 352 350 351 351 351 351 350 351 349 349 350 352 351 351 350 350 351 351 352 352 352 353 352 352 351 350 350 350 350 351 351 349 348 347 346 345 347 348 348 349 348 348 346 345 345 342 339 338 338 339 340 342 343 344 345 345 346 346 347 347 347 348 348 348 347 346
360 361 361 363 358 352 350 348 354 358 357 355 356 357 356 356 356 356 357 357 357 360 359 358 359 358 357 357 358 355 353 351 351 352 351 351 351 350 351 350 348 349 352 351 350 350 350 350 350 352 352 352 352 352 352 350 350 351 350 350 351 350 350 348 347 346 346 348 348 348 349 347 347 345 344 344 340 337 337 339 340 341 343 344 345 345 346 346 346 347 346 348 349 348 348 348 347
364 365 362 366 361 354 354 350 352 359 358 355 357 356 355 355 356 357 358 359 360 361 358 358 357 356 359 359 357 354 352 352 351 352 351 352 351 350 351 350 349 349 351 350 350 350 350 350 350 351 352 352 352 351 351 350 350 350 350 350 351 350 350 349 348 347 347 348 348 348 348 347 346 345 345 343 341 338 337 340 340 341 343 344 345 345 346 346 347 348 347 347 347 347 348 348 348
365 366 359 363 365 361 355 349 356 360 356 356 356 355 354 355 357 357 358 359 359 360 358 356 355 356 359 358 356 353 352 352 352 352 352 352 351 351 351 351 350 350 350 351 351 351 351 351 351 351 352 352 352 351 350 350 350 349 349 350 350 350 349 350 349 348 348 348 348 348 347 346 346 346 345 344 343 340 339 341 341 343 345 346 346 347 347 347 347 348 347 348 347 347 347 347 348
365 364 356 363 364 359 351 347 357 354 351 355 352 354 355 355 357 355 359 361 359 359 357 354 352 358 360 358 359 354 352 352 352 352 352 352 352 351 351 351 351 350 351 351 351 351 352 351 352 351 351 352 351 351 351 350 349 348 349 349 350 350 350 350 350 349 348 348 349 348 346 347 347 346 346 345 345 343 342 342 343 346 346 347 347 347 346 347 348 348 347 348 348 346 346 347 347
362 359 351 358 358 351 349 349 353 350 352 355 351 354 356 355 356 355 358 360 358 355 353 353 352 360 362 358 360 354 352 353 353 353 353 353 352 352 352 351 351 351 351 351 351 352 352 352 353 351 351 351 350 351 351 350 348 348 349 349 349 349 350 350 349 349 349 349 348 347 347 347 347 346 346 347 347 346 344 343 344 345 346 346 347 347 348 348 348 348 347 348 349 347 348 348 347
357 361 354 354 354 348 350 352 350 351 353 353 353 355 358 357 354 355 356 356 357 352 353 355 353 358 359 356 356 352 352 353 353 353 353 353 353 352 352 352 351 351 352 352 352 353 353 353 353 352 352 351 350 350 350 349 348 349 350 350 349 349 350 350 350 349 349 349 348 348 347 347 347 347 348 348 348 348 346 344 344 344 346 347 348 349 350 350 349 349 348 349 349 348 349 350 348
356 366 365 359 356 351 354 351 348 353 353 353 356 354 360 359 354 356 354 354 356 354 355 356 353 355 356 355 354 353 354 354 353 354 353 353 353 352 352 352 351 351 352 352 353 353 353 353 353 353 353 351 349 349 349 348 347 349 350 351 351 351 351 350 350 349 349 349 348 348 346 346 346 346 349 349 348 348 346 347 345 344 346 348 349 352 352 351 351 350 349 349 349 348 349 350 349
360 365 366 362 362 360 355 349 349 351 350 355 356 355 360 359 356 355 354 354 355 356 357 357 356 354 354 354 354 353 354 353 353 353 353 353 353 353 352 352 351 352 352 353 353 354 353 354 354 353 353 352 350 349 348 347 347 349 350 351 352 352 352 350 350 350 350 350 349 348 346 345 345 345 348 347 347 347 346 347 346 346 347 350 351 351 351 351 352 351 350 348 348 349 349 349 350
362 362 362 363 365 362 351 346 348 345 347 355 354 355 358 357 357 355 358 358 356 360 359 358 359 356 354 354 354 354 353 353 353 353 353 353 353 353 352 352 352 352 352 353 353 353 353 354 354 353 352 352 350 348 347 346 347 349 350 351 352 352 352 351 350 351 350 349 348 347 346 344 344 343 345 346 346 346 347 347 348 349 350 352 352 350 350 350 351 351 350 350 349 350 350 349 350
364 363 364 363 360 356 348 345 346 343 348 355 354 356 356 356 356 354 358 357 357 362 361 361 361 357 355 354 354 354 353 353 353 354 354 353 353 352 352 352 352 352 352 352 352 353 353 354 354 352 352 351 349 348 347 346 346 349 350 350 352 352 352 351 350 350 349 348 347 346 345 345 344 343 344 347 348 348 348 348 349 351 351 352 351 350 350 350 350 350 350 351 350 349 350 349 350
363 366 369 362 354 354 351 347 346 344 346 350 354 357 356 355 353 353 356 359 361 359 358 360 360 357 356 354 354 355 354 353 354 354 354 353 353 353 352 352 352 352 352 352 352 352 353 353 354 353 352 351 349 348 347 346 346 348 350 351 352 352 352 351 350 349 348 347 346 345 345 345 344 343 344 346 347 348 349 348 349 350 350 351 350 350 351 350 350 350 350 350 350 350 350 349 349
358 362 364 358 354 354 350 346 346 345 344 348 355 356 355 354 353 353 356 362 362 356 355 356 356 356 355 354 354 354 354 353 354 354 354 354 353 353 353 352 352 351 352 352 352 352 352 353 353 353 352 352 350 348 347 346 346 348 350 352 352 353 352 351 350 348 347 346 345 345 345 345 344 344 345 345 347 349 348 349 350 350 350 350 350 351 351 350 350 350 349 350 350 351 350 349 349
354 356 355 353 353 352 349 344 343 345 348 352 355 354 353 354 355 353 354 358 357 352 353 354 354 355 354 354 355 354 353 353 354 354 354 354 353 354 353 353 352 352 352 352 352 352 352 352 353 353 352 352 350 349 348 349 348 349 351 352 352 352 351 350 349 347 346 345 344 345 345 344 344 345 347 346 348 350 349 348 349 350 350 350 350 351 351 351 350 349 349 350 350 350 351 350 350
352 353 349 349 349 347 347 343 341 344 350 352 352 354 355 356 356 354 352 355 357 354 353 353 353 354 354 354 354 354 354 353 354 354 354 354 353 353 353 353 352 352 352 352 352 352 352 352 352 352 352 352 351 350 349 350 350 351 352 352 352 351 350 348 348 347 345 344 344 344 344 344 345 346 348 348 348 350 349 348 349 349 350 350 350 351 351 351 350 349 350 350 350 350 351 351 350
349 350 348 347 347 345 344 342 340 340 344 347 353 357 355 354 355 354 353 354 357 355 353 354 353 353 354 354 354 355 354 354 354 354 354 353 353 352 352 352 352 352 352 352 352 352 352 352 352 352 352 352 352 351 350 350 351 352 353 352 352 351 349 347 346 346 344 343 343 344 344 345 344 345 348 349 349 348 348 349 350 350 350 350 350 351 351 352 351 350 350 350 351 351 351 351 350
347 347 346 346 346 345 343 340 338 336 337 344 354 357 353 353 355 356 355 355 355 354 354 354 354 355 354 354 354 354 354 354 354 354 354 353 353 352 352 352 351 352 352 352 352 352 352 352 353 352 351 351 351 352 351 350 351 352 353 352 351 349 348 346 346 345 344 343 343 344 345 345 344 344 346 348 349 349 350 351 351 351 351 350 351 351 352 352 352 352 351 351 351 352 352 351 350
341 340 341 343 343 341 336 334 332 329 333 344 352 354 353 353 355 359 357 355 354 355 356 355 354 355 354 354 353 354 354 354 354 354 353 353 353 352 352 352 351 352 352 352 352 352 352 351 352 351 350 350 350 351 351 350 351 351 352 351 349 348 347 346 346 344 343 343 343 344 345 345 344 344 345 347 349 349 350 351 351 352 351 351 351 351 352 352 352 353 352 352 352 352 351 349 348
336 335 333 333 332 330 327 326 326 324 333 343 347 351 351 350 352 357 357 354 355 356 357 355 355 355 354 354 353 354 354 354 355 354 353 353 352 352 352 352 351 352 352 352 352 352 351 352 352 351 350 351 351 351 350 350 351 350 349 349 348 348 347 346 345 344 344 344 344 345 346 346 346 345 345 347 349 350 350 351 351 352 351 351 352 352 352 352 352 353 352 352 352 351 349 346 345
329 329 326 326 325 325 325 324 326 327 336 341 344 348 349 349 352 357 355 353 355 356 357 356 356 355 355 354 354 354 353 354 354 353 354 353 352 353 352 352 352 351 352 352 352 352 351 352 352 352 351 351 351 350 350 350 349 349 348 347 348 347 347 346 345 344 344 344 344 344 346 347 348 347 346 347 350 351 350 351 351 351 352 352 352 352 352 352 352 352 353 353 352 349 347 342 340
329 328 324 324 324 325 328 329 330 332 336 341 343 342 345 349 352 358 355 353 357 357 357 356 356 356 355 355 354 354 353 353 354 353 354 353 352 353 352 352 352 351 352 351 352 352 352 352 352 352 351 351 350 349 349 349 348 348 347 346 346 347 346 345 345 344 344 344 343 344 346 348 348 348 346 347 349 351 351 351 351 351 352 353 353 353 352 352 352 353 353 352 350 347 345 340 337
330 327 324 324 320 322 331 334 340 340 335 342 343 335 341 347 349 356 354 353 358 358 358 356 356 356 354 355 354 354 353 352 353 353 353 353 353 352 352 352 352 352 352 351 352 352 352 352 352 352 351 350 349 348 348 347 346 346 346 345 346 346 345 344 344 344 344 344 343 343 345 347 348 347 346 347 349 350 351 351 351 351 352 353 354 353 352 352 352 353 351 350 347 345 343 340 338
329 322 322 325 319 322 329 331 343 346 336 340 341 335 340 343 347 354 354 354 357 357 358 357 356 356 355 355 354 354 354 352 352 353 353 353 352 352 352 352 352 352 352 352 352 352 352 352 352 351 351 349 348 347 346 346 345 345 345 345 345 345 344 344 344 344 344 343 343 343 344 347 348 347 346 346 348 350 351 352 351 351 352 354 354 354 353 352 353 352 348 346 345 343 342 340 340
329 322 319 321 319 321 324 328 341 344 338 338 339 340 345 347 351 354 353 354 356 357 358 357 356 356 355 355 355 354 354 353 353 352 352 353 352 352 352 352 352 352 352 352 352 352 352 352 351 351 350 349 348 347 346 346 346 345 345 345 345 345 344 344 344 344 344 344 344 344 345 347 348 348 347 347 348 350 352 352 352 352 353 354 355 355 354 353 353 351 346 344 343 341 341 339 339
326 323 319 320 321 319 320 325 334 340 339 338 338 341 349 355 355 354 354 354 356 357 357 357 357 356 356 355 355 355 354 354 353 352 353 352 352 353 352 352 352 352 352 352 352 352 352 352 351 351 350 349 348 347 347 347 347 346 346 345 345 345 344 343 344 344 344 345 346 346 347 348 350 351 350 349 349 350 353 353 353 353 353 355 355 355 355 354 353 350 346 343 341 341 342 339 338
323 321 318 318 320 319 320 323 329 340 340 338 339 336 347 359 355 353 355 353 355 356 356 356 356 356 356 356 355 355 355 355 354 353 353 353 353 352 352 352 352 352 352 352 352 352 352 352 351 351 350 349 348 348 349 349 349 348 347 346 346 346 344 344 344 344 345 347 348 349 349 350 351 352 352 351 350 351 353 353 353 354 354 355 355 355 355 353 351 349 346 344 342 343 342 336 337
326 324 320 318 318 319 323 325 328 340 340 339 340 334 347 363 356 354 355 353 355 355 356 356 355 356 355 355 355 355 355 354 353 353 353 353 353 353 353 353 353 352 353 352 352 352 352 352 352 352 351 350 350 350 351 351 351 351 350 350 349 348 346 344 344 345 348 349 349 350 351 351 352 352 352 351 351 351 352 353 353 354 355 355 355 355 354 352 349 348 348 345 344 344 340 336 339
326 324 321 320 319 318 324 327 327 337 339 340 342 338 349 363 356 355 354 354 356 354 356 356 355 355 355 355 355 355 355 353 353 353 353 353 353 353 353 353 353 353 353 353 353 353 352 352 351 352 352 351 351 351 352 352 352 352 352 353 351 349 349 347 345 346 350 351 350 351 351 352 352 352 352 351 351 351 352 353 354 354 355 354 354 354 354 351 347 347 348 347 346 344 338 337 341
326 323 321 320 319 319 323 326 326 334 339 340 345 342 347 359 355 354 354 354 355 354 356 355 355 355 354 355 354 354 354 352 353 352 353 353 353 353 353 353 354 353 354 353 353 353 352 352 351 351 352 352 352 351 351 351 351 351 352 352 351 351 351 348 346 348 351 351 351 351 351 352 352 352 352 351 351 352 352 353 354 355 355 353 354 355 354 349 345 346 346 346 347 344 337 338 342
325 323 320 318 320 321 323 327 326 330 339 345 349 343 343 354 355 354 354 354 354 353 354 355 354 355 354 355 354 354 354 353 353 352 352 353 352 353 352 353 353 353 354 354 353 353 353 353 352 351 351 352 352 351 351 351 350 351 351 351 351 352 352 350 349 350 352 352 351 351 351 352 352 352 352 351 352 352 353 354 355 356 354 352 354 355 352 346 343 344 344 346 345 340 337 339 341
324 322 318 317 320 320 320 326 326 329 338 347 349 343 346 355 358 356 353 353 354 352 352 354 353 354 353 354 353 353 354 353 353 352 351 352 352 352 352 352 353 353 354 354 354 354 353 353 352 352 351 351 352 352 352 351 351 351 351 351 352 353 353 352 352 352 352 352 352 352 352 352 352 352 352 352 352 353 354 355 355 355 353 352 355 355 350 344 342 343 343 345 341 337 338 340 340
323 323 320 318 321 320 321 325 328 327 331 342 345 337 345 358 359 359 355 353 355 353 353 354 352 353 352 352 353 352 353 352 352 352 351 351 351 351 351 351 352 352 353 353 353 353 353 353 353 352 351 351 352 352 352 352 351 352 352 352 353 353 353 353 353 353 353 352 352 352 352 353 352 353 353 353 353 353 354 355 355 355 353 352 354 355 351 344 342 342 342 341 336 337 340 340 339
320 322 322 321 322 323 323 324 324 319 319 335 338 326 338 359 357 358 358 354 356 354 354 354 353 353 352 352 352 351 352 351 351 351 350 350 350 350 350 351 351 352 352 352 353 353 353 353 353 352 352 351 351 351 352 352 352 352 352 353 353 353 353 353 353 353 353 352 352 353 353 353 353 353 354 353 353 354 354 355 355 355 353 352 353 355 352 346 343 343 340 336 335 339 340 340 340
317 322 325 323 323 323 322 321 320 316 318 332 334 324 334 350 349 353 358 356 357 355 354 353 353 353 352 352 351 350 351 350 350 350 349 349 349 349 350 350 350 351 351 352 352 353 353 352 352 352 352 352 352 352 352 352 352 352 352 353 353 353 353 353 353 352 352 352 353 353 353 353 354 353 354 353 353 354 354 355 355 355 353 352 353 354 351 346 345 344 339 334 336 341 340 340 341
317 325 327 325 324 322 322 320 318 320 322 326 329 330 330 334 343 352 356 357 358 356 356 354 352 353 352 351 351 350 350 350 350 350 349 349 348 348 349 349 350 350 351 352 352 352 352 352 352 352 352 352 352 352 352 353 352 352 352 352 353 352 353 353 353 353 352 353 353 353 353 353 354 354 353 353 353 354 354 355 356 355 354 352 353 354 350 346 346 344 337 334 338 341 340 340 341
321 325 325 325 325 323 323 321 318 321 320 316 322 328 324 329 346 352 351 356 357 357 356 353 353 352 351 351 350 350 349 349 350 349 349 348 347 347 348 349 350 350 351 351 352 352 352 353 352 352 352 352 352 352 353 353 353 352 352 353 353 353 353 353 353 353 353 353 353 353 353 353 354 354 353 353 353 354 354 355 355 356 354 352 352 353 350 347 347 345 338 334 338 340 340 341 341
323 323 324 323 322 324 326 323 319 320 318 314 317 321 318 323 338 345 346 350 353 355 356 352 352 351 351 351 350 349 349 348 349 348 348 347 346 347 347 349 349 350 351 351 351 352 352 353 352 352 352 352 353 353 353 354 353 353 353 352 353 352 353 353 353 353 353 354 354 354 353 353 354 354 353 353 354 353 354 355 355 355 355 353 352 353 351 348 347 346 340 335 337 340 340 340 340
323 323 323 321 322 325 325 325 322 316 314 314 316 318 317 316 325 337 343 346 350 353 353 352 351 349 349 350 349 349 348 348 348 348 348 347 346 346 346 347 348 349 350 350 351 351 351 352 352 353 353 352 353 353 353 354 353 354 353 352 352 352 353 354 353 354 354 354 354 354 354 354 354 354 353 354 354 354 355 355 355 356 356 354 353 352 353 350 346 345 342 337 338 340 340 340 340
321 324 321 319 323 322 317 318 318 313 313 316 317 319 317 312 319 335 342 344 347 348 350 351 350 349 348 348 348 348 348 347 348 348 348 347 346 346 346 346 348 348 349 350 351 351 351 352 352 353 353 352 353 353 353 353 354 354 353 353 352 352 352 353 353 354 353 354 354 354 354 354 354 354 353 354 354 356 356 355 355 356 356 355 353 353 353 351 347 345 343 337 337 340 339 339 339
321 323 318 316 318 317 313 314 315 315 317 323 321 317 315 314 324 340 342 340 342 344 347 348 348 348 347 347 347 347 347 346 347 348 347 347 347 346 345 345 347 347 349 349 350 351 351 351 352 352 353 353 353 353 354 353 354 354 354 354 353 352 352 353 353 353 354 354 354 354 354 354 354 354 354 354 353 355 355 356 356 356 356 355 354 354 354 352 348 346 343 336 335 339 339 339 340
319 318 316 315 315 314 314 316 316 316 317 322 322 317 316 318 327 338 339 339 341 341 343 344 346 347 346 345 345 345 347 346 346 347 346 347 347 346 344 344 346 347 348 349 349 350 351 351 352 352 352 352 353 353 354 353 354 354 354 354 353 353 353 352 353 353 353 353 354 354 354 354 354 354 354 353 353 354 355 356 356 356 357 355 355 355 354 353 348 346 345 339 335 337 339 338 339
318 320 319 316 316 316 316 315 314 315 317 317 317 317 317 317 326 335 332 336 341 339 340 343 343 345 344 343 344 344 346 345 345 347 346 347 347 345 344 344 345 346 347 348 349 350 350 351 351 352 352 352 352 353 353 353 354 354 354 354 353 353 353 352 353 353 353 353 353 354 354 354 354 353 353 352 353 353 354 355 357 356 356 355 355 355 355 353 349 346 347 343 338 337 337 339 340
318 321 319 315 319 320 316 318 320 318 317 316 318 322 328 328 333 341 332 332 340 339 340 341 341 343 343 343 344 343 344 345 345 346 346 347 347 344 344 344 344 345 345 348 348 349 350 350 351 351 351 352 352 352 353 353 354 354 353 354 353 353 353 353 353 352 353 353 353 353 353 353 353 353 352 352 353 353 354 355 356 356 356 355 355 355 355 354 351 347 347 346 341 337 337 339 340
319 317 315 317 322 319 313 315 319 316 313 317 321 322 328 329 332 342 336 332 339 340 341 341 340 341 342 343 344 342 343 344 344 346 346 346 346 344 344 343 344 344 344 346 347 348 350 350 350 351 351 351 351 352 353 353 353 353 353 354 354 353 353 353 353 353 353 353 353 353 353 353 353 353 352 352 352 354 354 356 357 356 356 355 355 355 355 355 352 349 347 347 343 338 337 340 341
319 315 316 318 319 318 318 315 314 313 313 318 320 318 320 320 327 344 343 336 338 339 341 342 340 342 341 341 342 340 342 343 343 345 345 346 346 344 343 343 343 344 344 345 347 347 349 349 350 350 351 351 351 351 352 353 353 353 353 354 353 353 354 353 353 353 353 353 353 353 352 352 352 352 352 352 352 353 355 356 357 357 356 355 355 355 355 354 353 350 348 348 345 339 337 340 341
320 319 321 320 316 314 317 316 314 314 315 317 319 319 321 321 328 342 341 338 342 340 340 342 341 343 342 341 341 340 340 341 342 344 344 345 346 344 343 343 342 344 344 344 346 347 348 349 349 350 350 350 351 351 352 352 353 353 353 353 353 353 353 353 353 353 353 353 353 352 352 352 352 352 352 352 353 354 355 357 357 357 356 355 356 355 355 354 352 350 348 348 346 340 337 339 341
321 320 319 320 319 314 315 317 316 316 317 318 317 316 319 326 337 346 343 344 345 340 341 343 341 342 343 341 341 340 339 341 341 341 342 344 344 343 342 343 342 343 344 344 345 346 347 348 348 349 349 350 350 350 351 352 353 353 353 353 353 353 353 353 353 353 353 352 352 352 352 352 352 351 352 352 353 354 355 356 357 357 356 355 356 355 355 355 352 350 349 347 346 341 337 338 340
318 316 314 315 317 315 315 316 316 315 316 317 315 312 319 337 349 351 350 347 343 341 343 342 340 341 341 342 341 341 340 340 340 340 340 341 342 342 342 342 343 342 343 343 344 345 346 347 348 348 349 349 350 350 351 351 352 352 353 353 353 353 353 353 353 353 353 353 353 352 352 352 352 351 351 352 352 353 354 356 356 356 356 355 356 355 355 354 353 351 349 347 346 343 338 337 340
319 317 316 314 315 315 313 315 316 313 315 321 319 310 317 338 346 347 355 351 341 340 341 340 341 340 341 341 341 342 342 339 339 339 339 340 341 342 341 342 343 342 342 344 344 345 345 347 348 348 349 349 349 350 350 351 352 352 353 353 353 353 353 353 353 353 353 353 353 353 352 352 352 351 351 351 351 353 354 355 355 355 355 355 355 355 355 354 353 351 349 347 346 344 340 337 338
Wind_Speed
14 15 15 12 10 7 4 2 0 1 1 1 2 1 1 1 2 2 3 2 1 2 2 4 6 5 4 4 6 5 4 1 2 3 2 3 18 27 22 24 25 23 26 26 24 24 24 23 21 22 23 23 23 23 24 24 24 23 24 25 25 25 24 22 21 20 19 18 17 16 16 15 14 13 13 12 12 11 11 10 10 10 9 9 9 9 10 10 10 10 10 10 9 8 8 7 7
17 16 15 11 9 5 1 1 1 1 2 1 2 1 1 1 2 2 3 3 1 4 5 5 7 7 7 7 8 5 4 4 2 2 3 14 22 21 23 26 26 25 26 25 24 24 24 23 21 22 23 23 24 24 24 25 25 25 26 25 24 24 22 21 20 19 18 17 16 16 15 14 13 12 12 11 11 11 10 10 9 9 9 9 9 9 9 9 10 9 9 9 9 8 7 7 6
19 16 15 11 5 2 1 0 0 1 2 1 3 2 0 2 1 2 3 3 4 8 8 7 7 6 6 6 3 2 2 3 5 4 7 19 18 17 26 27 27 26 26 26 24 24 24 22 21 21 23 24 24 24 25 25 25 25 25 24 23 22 21 20 19 18 17 17 16 15 14 13 13 12 11 11 10 10 9 9 9 8 9 9 9 8 8 8 9 9 9 8 8 8 7 6 6
19 15 15 8 1 1 1 1 1 2 2 1 3 2 1 0 1 4 4 6 7 9 7 5 4 3 3 5 1 3 3 3 6 5 8 15 15 24 29 27 28 27 27 26 25 25 24 23 21 21 23 23 23 23 23 24 23 23 22 22 22 21 20 19 18 18 17 16 15 14 13 12 12 11 11 10 9 9 9 8 8 8 8 8 8 8 8 7 7 8 8 8 8 7 7 6 5
18 16 14 3 1 0 1 0 0 2 1 2 1 3 2 2 4 5 5 7 6 6 5 4 3 2 4 4 1 2 4 6 7 6 9 13 19 30 30 28 29 27 28 27 26 26 24 23 22 22 22 22 22 21 22 22 22 21 21 21 21 20 19 18 17 17 16 15 14 13 13 12 11 11 10 9 9 8 8 8 8 8 8 8 8 7 7 7 7 7 7 7 7 7 6 6 5
17 14 9 2 1 0 1 0 1 1 3 4 2 4 1 4 6 6 6 6 4 5 5 4 4 4 4 3 2 3 6 7 7 9 12 17 25 32 30 30 29 28 28 27 27 26 25 24 22 22 22 21 21 20 22 22 22 21 21 21 20 19 18 17 17 16 15 14 13 13 12 11 11 10 9 8 8 7 7 7 7 8 7 7 7 7 7 6 6 7 7 7 7 6 6 5 5
18 8 4 2 1 1 1 1 3 3 3 4 3 2 4 6 7 8 7 5 4 4 4 4 7 7 4 1 3 3 6 8 9 12 15 22 30 31 30 30 28 29 28 27 27 26 25 23 22 22 22 21 20 20 21 22 21 21 20 20 19 18 17 16 16 15 14 14 13 12 11 11 10 9 9 8 7 7 6 6 7 7 7 7 7 6 6 6 6 6 7 7 6 6 6 5 5
15 3 1 1 1 0 1 1 3 3 3 3 2 4 7 7 8 7 6 4 2 3 3 6 6 5 3 2 3 4 6 9 12 16 20 26 32 29 29 30 28 28 27 27 26 25 24 22 22 22 22 21 20 20 21 21 20 20 19 19 18 17 17 16 15 15 14 13 12 12 11 10 10 9 8 7 6 6 6 6 6 6 6 6 6 6 6 6 6 6 6 6 5 5 5 5 5
8 0 1 0 1 1 1 2 3 3 3 3 1 5 8 8 7 6 6 4 4 5 4 5 3 4 4 5 5 4 7 12 16 19 23 28 31 28 28 29 28 27 26 26 25 25 24 22 22 21 22 21 20 20 20 21 20 20 19 18 18 17 16 16 15 14 13 13 12 11 10 10 9 8 7 6 6 5 5 5 6 6 6 6 5 6 6 6 5 6 6 5 5 4 5 5 5
2 2 1 1 1 2 3 2 3 2 3 3 4 7 9 7 7 6 6 6 6 6 4 4 5 6 7 6 5 3 8 17 20 20 24 28 29 28 26 27 29 27 25 26 25 25 24 22 22 22 22 21 21 20 20 20 20 19 18 18 17 16 16 15 15 14 13 12 11 11 10 9 8 8 7 6 5 5 5 5 5 5 5 5 5 5 5 6 5 5 5 5 5 4 4 4 4
2 1 0 1 2 1 2 2 4 3 3 1 5 8 8 8 7 5 6 7 5 5 5 5 6 7 7 5 3 5 14 20 22 22 24 25 26 27 26 25 27 27 25 26 26 25 25 23 22 21 21 21 20 20 20 20 19 19 18 18 16 16 16 15 14 13 13 11 11 10 9 9 8 7 6 5 5 5 5 5 5 5 5 5 5 5 5 5 5 5 5 5 4 4 4 3 3
1 1 1 1 1 2 3 2 4 3 2 2 5 6 7 9 8 6 8 7 5 6 3 2 6 6 6 4 2 9 16 19 22 23 23 23 24 26 25 24 26 26 26 27 26 25 25 24 22 21 21 21 20 21 21 20 19 18 18 17 16 16 15 15 14 13 12 11 10 10 9 8 7 7 6 5 5 4 5 5 5 5 5 5 5 4 4 5 5 5 5 4 4 3 4 3 3
1 2 3 1 2 2 2 2 3 1 1 3 6 6 8 9 8 8 8 7 6 6 2 3 7 5 5 4 4 8 13 17 22 22 22 21 22 24 23 23 25 25 26 27 26 25 24 24 23 22 21 21 20 20 20 20 19 18 18 17 16 15 15 14 13 13 12 11 10 9 9 8 7 6 5 5 4 4 4 3 4 5 5 5 4 4 5 5 5 5 5 4 4 3 3 3 3
2 2 3 1 1 1 2 2 3 3 2 4 6 7 8 6 6 8 9 9 6 4 5 7 8 6 5 6 5 6 10 19 23 22 22 20 22 24 22 23 24 24 25 27 26 25 24 24 23 23 22 21 21 21 20 20 20 19 18 16 16 15 15 14 13 13 12 11 10 9 8 7 6 5 5 4 3 3 2 3 3 4 5 5 5 5 5 5 5 4 4 4 4 3 3 3 3
3 0 2 1 3 3 2 2 2 3 3 4 7 10 7 2 6 8 8 9 4 4 8 8 5 4 5 8 6 7 14 22 23 22 22 21 22 22 21 22 23 22 24 26 26 24 24 24 23 23 23 22 22 21 20 21 20 19 18 17 16 15 15 14 13 13 12 11 10 9 8 7 6 5 4 4 3 2 1 2 3 4 4 5 5 4 4 4 4 4 4 3 3 3 3 3 3
2 2 2 2 2 2 2 2 1 1 4 3 7 10 6 2 7 6 3 5 5 6 6 5 3 2 6 6 7 15 22 25 24 23 23 21 21 21 21 21 22 21 22 25 24 23 24 23 23 23 23 23 23 23 21 21 21 20 18 17 16 15 15 14 14 13 12 11 10 9 8 7 6 5 4 3 2 1 1 1 2 3 3 4 3 3 3 3 3 3 3 2 2 2 2 2 2
1 1 1 2 2 2 2 1 1 2 4 3 8 10 8 4 4 3 3 6 8 8 2 3 2 1 7 8 15 25 26 26 25 24 22 21 21 21 21 21 22 22 23 24 22 22 24 23 23 24 23 24 24 23 22 22 22 20 18 18 16 16 15 14 14 13 12 11 10 9 8 7 6 6 5 4 3 2 1 1 2 2 2 2 2 3 4 3 4 3 2 1 2 2 1 2 2
2 1 1 3 3 3 3 3 3 3 2 5 9 11 11 9 6 3 6 6 7 7 2 4 5 5 10 16 25 28 27 27 26 23 21 20 20 20 21 22 23 23 24 25 22 22 24 24 24 24 24 24 24 24 23 23 22 20 18 17 17 16 15 15 14 13 12 11 10 9 9 8 7 6 6 5 3 2 1 1 1 1 1 2 2 2 3 3 3 3 1 1 2 1 1 1 1
3 2 2 4 4 4 5 5 5 2 3 6 7 8 10 10 9 5 5 6 8 7 3 5 7 8 13 19 27 27 27 26 25 23 21 20 20 19 19 22 23 23 25 26 25 23 24 25 24 25 24 24 24 24 24 23 22 20 19 18 17 17 16 15 14 13 13 12 11 10 9 9 7 7 6 5 3 2 1 1 1 1 1 2 2 1 2 2 3 2 1 1 2 1 0 0 1
4 2 3 6 6 5 6 6 7 3 5 8 7 6 6 8 9 5 7 9 8 7 7 8 8 10 13 16 22 25 26 24 24 22 20 20 19 19 19 21 22 23 25 25 25 24 24 25 25 25 24 24 25 25 24 24 23 21 20 19 18 17 16 15 15 14 14 12 12 11 10 9 8 7 6 4 4 3 2 2 2 2 1 2 2 1 1 2 3 2 2 1 1 1 0 1 1
3 5 5 5 4 5 8 8 7 5 6 10 8 6 5 7 6 6 11 9 5 8 11 12 15 16 17 17 19 23 24 23 24 22 21 21 20 19 19 20 21 22 24 24 25 25 25 25 25 25 25 25 25 25 25 25 24 22 21 21 19 18 17 16 16 15 14 13 12 11 10 9 8 7 6 5 5 5 3 3 3 2 2 2 2 2 2 2 2 2 1 1 1 1 1 1 2
2 7 8 6 4 5 7 4 5 5 5 9 9 8 8 7 5 8 15 11 7 11 14 13 17 20 20 20 19 20 21 21 22 22 21 21 21 20 19 21 22 22 23 24 25 26 26 26 25 25 25 25 26 26 26 25 25 23 22 22 20 19 18 17 17 16 15 14 13 12 11 10 9 8 7 6 6 6 5 4 3 3 3 2 2 3 1 1 1 1 1 0 1 1 1 2 2
4 5 7 8 7 8 8 4 3 4 6 9 10 8 9 8 7 9 15 11 3 7 12 12 15 19 22 21 19 19 20 20 21 22 22 22 22 20 20 22 23 23 24 24 26 26 26 26 26 26 25 25 26 26 25 25 24 24 24 22 22 20 19 19 18 17 16 15 14 13 12 11 10 9 8 7 7 7 7 6 4 4 4 3 3 3 2 1 1 1 1 1 1 2 2 3 4
8 6 5 7 7 10 11 8 5 4 7 9 7 7 11 13 8 9 14 8 2 4 10 13 14 17 20 19 17 19 19 19 20 23 23 22 22 21 22 24 24 24 24 24 25 26 27 26 27 27 26 25 26 26 25 24 24 24 24 23 23 21 21 20 19 17 16 15 14 13 12 11 10 9 9 8 8 8 8 7 6 6 6 5 5 5 4 2 1 2 1 1 2 3 3 5 5
9 8 5 5 7 10 11 9 7 6 7 7 8 9 14 15 8 10 15 6 4 9 11 13 15 16 17 17 17 17 17 18 20 22 22 21 22 21 22 24 24 24 25 26 25 26 28 27 27 28 27 26 25 25 24 24 24 25 25 24 23 22 21 20 19 18 16 15 15 14 13 12 11 10 9 8 8 8 8 7 7 7 6 6 6 6 4 3 3 2 2 3 4 4 5 6 6
8 8 6 7 9 10 9 9 9 8 6 7 11 12 13 10 6 7 10 5 7 11 13 13 16 17 15 15 16 16 16 17 19 22 22 21 22 22 23 24 24 25 26 26 26 27 28 27 27 28 28 27 26 24 25 27 27 27 26 24 23 22 22 20 19 18 17 16 15 14 13 12 12 11 10 9 9 9 8 8 7 7 6 6 6 6 5 5 4 4 4 5 6 6 6 6 6
5 6 8 10 11 10 8 9 11 7 5 10 14 14 12 7 5 6 5 8 11 13 13 13 14 16 16 15 14 14 14 17 20 22 20 20 23 23 24 25 25 26 26 26 27 27 28 28 28 29 29 28 27 26 27 29 29 28 27 24 24 23 22 21 20 18 17 17 16 15 14 13 12 12 11 10 10 10 9 9 8 7 7 6 7 6 6 6 5 5 6 6 7 6 5 4 4
5 6 8 10 9 9 8 9 11 4 4 13 15 10 8 5 7 8 7 12 14 14 14 14 14 14 14 15 13 11 11 16 21 21 20 21 23 24 25 27 27 27 28 28 28 27 28 29 28 28 29 28 28 28 29 30 30 29 27 26 25 24 22 21 20 19 18 17 17 15 14 14 13 12 12 11 11 11 11 10 9 8 8 7 7 7 6 6 6 5 6 7 7 5 3 3 3
5 3 5 8 5 7 9 8 9 5 5 10 11 4 5 10 10 7 10 12 14 15 15 14 14 12 12 13 12 10 11 16 19 19 21 23 24 26 26 28 29 28 29 29 28 28 30 30 28 27 29 29 29 30 30 30 31 29 28 26 25 24 23 22 21 20 19 18 17 16 15 14 14 13 13 13 12 12 12 11 10 9 8 7 7 7 7 7 6 6 6 7 6 3 2 3 3
4 2 3 5 5 6 7 3 5 5 4 12 13 3 7 15 10 9 12 13 14 14 13 13 12 10 11 11 10 10 12 15 17 19 23 24 25 27 27 28 30 29 29 29 29 30 30 31 30 28 30 31 30 31 31 31 31 30 28 27 25 24 23 22 22 20 19 18 17 16 16 15 15 15 14 14 13 13 12 11 10 9 8 8 8 8 8 7 7 7 6 5 3 1 2 2 2
3 3 2 2 2 6 6 2 2 2 3 13 14 5 9 13 10 10 14 16 17 15 13 13 12 11 10 11 11 11 12 14 17 21 23 24 25 26 27 28 30 30 29 30 31 31 30 30 30 30 30 31 31 31 32 31 31 30 28 27 26 25 24 23 22 21 20 19 18 17 17 16 16 16 15 15 14 14 13 12 11 10 9 8 9 9 8 8 7 7 5 4 2 1 2 2 1
1 2 3 2 2 5 7 4 5 5 3 11 12 5 5 8 9 11 13 15 17 15 14 14 13 13 12 11 11 11 10 13 17 20 22 24 25 26 27 29 30 31 31 31 31 31 30 30 30 30 31 32 32 31 32 31 30 29 28 27 27 25 24 24 23 21 20 19 18 18 17 17 16 16 16 16 16 15 14 13 11 10 9 9 10 10 8 8 8 6 4 3 2 2 2 2 1
2 2 4 2 3 4 6 5 5 7 6 8 11 5 1 4 8 11 13 16 15 14 14 15 14 14 13 11 10 11 10 11 14 18 22 24 25 27 28 29 31 32 32 32 32 31 31 31 31 31 31 32 32 32 31 31 30 29 28 27 27 26 25 24 23 21 20 20 19 19 18 18 17 17 17 17 17 17 15 14 12 11 10 10 11 11 10 8 8 7 5 4 2 3 3 3 2
2 1 3 4 4 4 4 5 4 5 9 9 13 8 3 2 9 13 14 16 15 13 15 15 13 12 11 10 10 11 11 12 13 17 24 26 26 27 28 29 31 31 31 31 31 32 32 31 31 31 31 31 32 32 31 30 29 29 28 28 27 26 25 24 23 22 21 21 20 19 18 18 18 17 17 18 18 18 16 14 12 12 12 11 12 12 10 10 9 8 7 5 3 4 4 4 3
4 4 3 3 4 4 5 5 3 4 7 9 12 11 6 1 8 13 13 15 15 14 14 13 13 12 12 11 11 11 12 13 14 19 26 28 27 28 28 28 30 31 31 30 30 31 31 31 31 30 30 31 32 32 30 29 28 28 27 27 26 26 26 25 24 23 22 22 21 20 19 19 18 18 18 18 19 18 17 15 14 14 14 13 12 12 11 11 10 10 9 7 5 5 5 5 4
7 6 4 4 4 5 5 5 5 5 5 6 10 12 7 4 8 11 12 13 13 11 10 10 11 11 11 11 11 11 13 14 15 21 26 27 27 28 28 29 29 31 31 30 30 30 31 31 30 30 30 30 30 30 29 28 27 27 26 26 26 27 27 26 25 24 23 22 21 20 20 19 19 19 18 19 19 19 18 17 16 15 16 15 14 14 13 11 10 10 10 8 7 7 6 4 4
5 3 3 4 4 6 4 5 8 3 5 6 9 10 7 7 9 11 12 12 12 11 10 11 12 11 12 13 13 14 14 13 14 20 24 26 27 28 28 29 29 29 30 30 31 31 32 32 31 31 31 30 30 31 30 30 29 28 27 27 28 28 27 27 26 25 24 23 22 21 20 19 19 19 19 19 19 19 19 18 17 18 18 17 16 14 12 11 10 10 10 10 9 9 7 5 6
5 4 4 5 5 6 5 4 8 2 4 6 5 7 7 7 8 9 11 13 14 15 15 15 15 14 12 14 15 14 12 9 11 16 21 25 27 28 29 29 29 30 30 32 33 33 34 34 34 33 32 31 32 33 33 32 33 31 30 29 29 28 28 28 27 26 25 23 22 22 21 20 19 19 19 19 19 19 19 19 19 19 19 18 16 14 12 10 10 10 11 11 11 10 8 6 7
5 4 4 5 4 4 6 5 7 2 3 4 4 7 7 5 7 9 13 15 15 16 17 17 17 16 13 14 15 13 11 10 12 15 18 24 27 28 29 28 31 32 33 34 35 35 34 34 35 34 34 34 34 35 35 35 34 33 31 29 28 27 27 28 27 25 23 23 23 22 21 21 21 20 19 19 19 19 20 20 20 20 19 17 16 14 12 11 11 10 10 11 11 10 8 7 7
5 5 4 5 3 1 4 5 4 3 3 3 3 4 4 1 5 8 12 12 10 10 13 12 12 15 15 16 15 14 15 14 15 15 16 21 25 27 29 29 31 32 32 34 35 35 36 36 37 37 37 37 37 37 37 36 33 31 30 27 26 26 25 25 24 24 24 24 24 23 23 23 22 21 20 20 20 20 21 21 20 20 19 17 16 15 14 12 11 10 10 11 12 11 10 8 6
5 6 6 6 4 4 5 4 4 4 3 1 4 2 5 3 6 8 8 9 8 8 10 10 10 12 12 12 12 13 15 15 15 16 16 18 21 26 30 30 30 31 33 35 37 38 38 38 39 39 39 39 39 38 37 34 31 29 27 24 22 21 21 21 22 24 25 26 26 25 24 23 23 22 21 21 22 21 21 21 20 20 18 17 16 16 15 14 12 11 11 11 13 12 11 9 6
5 6 9 8 5 4 3 2 3 4 5 3 3 0 6 4 8 9 7 9 12 10 11 14 13 12 11 11 12 13 13 13 14 15 16 17 21 26 29 31 31 32 35 37 39 40 40 40 40 40 39 39 40 39 37 34 32 31 29 26 23 22 22 23 25 27 28 29 28 26 25 24 23 23 22 22 23 23 22 21 21 20 19 17 16 16 16 15 13 12 11 12 13 12 11 9 8
6 6 9 9 7 6 4 3 2 1 4 5 2 4 5 4 6 10 9 12 15 12 13 15 13 12 13 13 13 13 13 13 13 14 15 16 20 23 26 32 34 34 37 39 38 39 40 39 39 40 40 39 39 38 37 35 34 32 31 31 30 28 27 28 30 31 30 30 29 28 26 25 24 24 23 23 24 24 23 22 21 21 19 18 17 17 17 16 14 13 12 12 12 12 11 11 10
5 5 8 8 8 8 7 6 4 4 4 6 3 4 3 5 6 9 11 13 14 14 15 15 14 15 15 15 14 14 15 15 14 14 15 16 19 22 27 34 38 39 40 38 37 38 40 39 39 41 40 39 39 37 37 37 36 35 34 33 32 31 31 30 30 30 30 29 29 28 28 26 26 25 24 24 24 24 23 22 22 21 20 19 18 18 18 17 15 13 12 12 13 12 11 11 11
5 6 7 7 7 7 6 7 5 3 2 6 5 5 3 6 6 5 9 12 13 16 18 17 16 17 17 17 16 16 15 15 15 15 17 17 19 25 31 35 40 42 41 39 40 41 41 41 40 40 40 40 39 38 38 38 38 37 35 34 32 32 32 29 26 26 27 28 28 29 28 28 27 25 24 24 24 25 24 23 22 22 21 20 19 19 18 18 17 15 14 14 15 13 12 12 12
4 6 3 1 4 4 4 6 4 2 3 7 7 6 5 6 5 3 7 11 13 15 16 16 16 17 17 17 17 16 15 14 15 16 16 18 23 30 33 35 38 40 40 41 41 40 40 40 39 39 41 40 39 38 39 39 39 37 36 35 33 32 31 27 24 24 25 27 28 29 29 29 28 26 24 24 25 25 25 24 23 23 22 21 21 20 19 19 17 16 15 15 16 14 13 12 13
5 5 3 3 1 2 2 2 3 2 5 9 9 8 7 6 5 5 7 9 14 13 11 13 14 15 17 17 16 17 15 14 15 15 15 18 25 31 31 30 33 35 36 37 37 37 38 38 39 40 41 41 39 39 40 40 40 39 37 37 36 35 32 27 25 25 25 26 28 29 30 30 30 29 26 25 25 26 26 25 24 23 22 22 22 22 21 20 18 17 16 16 17 15 14 14 13
5 5 4 2 4 3 1 1 3 5 8 7 8 8 8 9 6 6 8 11 15 15 14 16 17 18 19 18 17 17 17 15 15 15 15 16 19 23 25 27 29 30 31 33 35 36 36 37 38 39 40 40 40 39 40 40 40 40 39 38 38 38 34 30 29 29 28 28 29 30 30 30 30 30 28 27 27 26 26 26 25 24 23 23 23 23 22 20 19 18 17 18 19 17 16 15 14
6 5 6 4 2 2 4 2 2 7 7 5 7 8 6 9 6 7 11 11 14 16 17 18 20 21 20 19 19 17 16 16 16 15 15 15 15 16 20 25 27 28 30 33 34 35 36 37 38 38 39 40 40 39 40 40 40 41 40 39 39 38 36 33 32 31 31 31 31 30 30 30 31 30 31 31 31 29 28 27 26 26 25 24 24 24 22 21 20 19 18 18 20 19 17 17 17
8 6 6 6 4 4 6 4 2 5 5 5 6 7 4 7 4 10 13 13 14 16 17 18 20 22 22 22 20 18 17 17 16 16 15 15 16 16 19 25 27 29 33 35 35 36 36 36 38 39 40 40 40 40 40 40 41 41 41 41 41 39 37 36 35 34 33 33 32 32 32 33 32 33 33 34 33 31 29 28 27 26 25 24 24 24 23 22 21 21 19 18 20 20 18 18 18
7 6 6 6 5 5 5 4 4 5 5 4 2 5 5 5 5 10 14 14 15 15 16 18 18 19 20 18 16 15 16 17 16 16 17 17 18 18 21 26 28 30 34 35 36 36 36 36 38 40 40 40 40 40 41 41 42 42 41 41 41 39 39 38 38 36 35 35 34 34 34 34 34 35 35 34 33 32 31 30 28 28 27 25 25 25 24 23 23 22 21 19 20 20 20 20 19
5 5 5 6 6 6 3 4 6 3 2 3 2 3 5 5 5 6 9 12 13 14 16 16 17 18 16 12 11 14 15 16 15 16 17 18 18 19 22 26 28 31 33 34 36 37 37 38 38 40 41 41 42 42 42 43 43 42 42 42 41 40 38 37 37 37 36 37 37 36 36 36 36 36 35 34 33 33 32 31 30 29 28 27 26 26 25 25 24 24 23 21 20 21 21 21 20
3 5 7 6 6 6 3 4 2 2 2 5 3 3 5 4 5 5 6 9 11 13 14 15 17 18 14 9 11 14 15 16 17 17 18 19 18 19 23 27 28 30 32 34 37 39 40 39 39 40 41 40 41 43 43 43 43 42 41 42 42 40 39 38 38 38 38 38 37 37 36 36 36 35 34 34 33 33 33 32 31 31 30 29 27 26 26 26 26 25 25 24 22 21 21 21 20
6 6 7 4 4 3 3 2 2 2 5 5 2 4 4 3 5 4 5 8 10 12 12 14 16 16 13 11 12 15 16 17 18 18 18 18 17 18 23 28 31 33 35 38 41 41 41 41 41 41 41 41 43 43 43 43 42 41 41 42 42 42 41 41 40 40 39 37 37 37 36 36 36 35 35 34 34 33 33 32 32 32 31 31 29 28 27 27 27 27 26 25 23 22 22 22 21
5 6 7 6 3 4 4 3 5 5 5 4 3 4 5 5 5 4 7 9 11 11 11 12 14 14 12 13 14 16 16 15 15 17 16 16 17 18 23 28 31 34 37 38 40 39 39 40 41 41 42 44 43 42 42 42 42 42 42 43 44 43 42 42 41 40 38 37 37 37 37 36 36 35 35 34 34 34 33 33 33 33 33 32 31 30 29 28 28 28 28 27 25 23 24 24 23
2 4 6 4 3 5 5 4 4 4 4 3 3 4 4 6 6 7 10 12 12 12 11 12 14 15 13 14 15 14 14 14 15 17 17 17 18 20 26 30 32 35 37 37 37 36 37 39 40 40 41 40 38 39 40 41 41 42 41 41 42 42 42 42 41 40 39 39 39 39 38 37 36 35 35 35 34 35 34 34 33 33 33 33 32 31 30 30 29 29 29 28 26 25 26 26 24
4 5 6 4 1 2 3 3 2 4 4 3 3 5 6 5 5 9 12 12 13 13 12 12 14 14 15 16 16 14 14 15 17 17 17 19 19 20 27 32 33 34 35 34 34 35 38 38 38 40 39 37 37 39 40 40 41 41 40 40 40 41 42 42 41 41 40 40 40 39 38 37 36 36 35 35 36 36 35 34 34 34 34 34 34 33 32 31 31 31 30 29 28 27 27 27 26
9 7 7 7 4 4 4 4 3 3 5 4 3 6 7 5 5 8 10 10 11 12 12 12 12 13 15 16 16 14 14 15 17 17 18 18 18 18 23 28 30 30 30 30 32 34 36 36 37 38 37 37 39 40 41 41 40 40 40 40 40 40 41 41 41 41 40 40 39 38 37 36 36 36 36 36 37 37 36 35 34 34 34 35 35 35 34 33 32 32 31 30 30 29 28 28 27
Wind_Direction
151 150 153 161 165 174 193 175 251 313 57 276 261 314 242 193 106 104 113 125 131 155 122 101 118 117 106 111 133 111 47 134 157 139 180 163 148 154 160 163 159 150 149 146 143 141 140 140 138 137 133 131 132 134 135 137 139 138 136 132 133 133 133 132 130 129 128 128 127 127 128 126 123 120 118 115 111 107 105 101 98 95 92 90 86 85 88 90 88 83 82 81 80 82 87 91 91
152 153 159 160 167 184 224 180 305 347 36 334 287 216 238 40 89 85 133 168 156 135 114 98 98 84 82 100 122 106 42 22 73 112 110 137 141 151 160 163 159 152 150 146 143 141 139 139 139 138 133 132 132 134 135 136 137 137 135 133 133 133 132 131 130 130 130 131 131 131 130 127 125 122 119 115 112 108 107 104 100 96 92 90 85 82 83 87 88 84 83 81 80 79 84 87 86
153 155 163 158 167 232 314 40 254 58 60 346 284 253 356 31 92 84 126 145 113 120 115 109 94 83 94 93 81 73 79 54 107 113 124 142 142 153 162 163 159 154 151 149 145 143 142 142 143 139 135 135 134 135 135 135 136 135 135 134 134 133 132 132 132 132 132 133 133 133 130 129 127 123 120 115 113 111 110 107 101 96 90 86 83 80 78 79 83 87 86 84 84 81 85 87 84
154 156 160 158 169 246 331 32 155 110 76 250 280 284 223 180 108 67 88 112 119 121 116 116 78 25 89 109 88 78 105 114 134 130 137 156 157 156 160 162 160 155 153 152 149 148 147 145 145 141 139 139 138 138 137 137 137 136 136 136 136 135 134 134 135 134 134 135 135 135 133 132 129 125 122 117 116 113 112 108 102 96 88 82 78 77 74 75 79 84 86 85 85 83 85 85 85
153 156 158 164 337 151 23 7 358 103 196 203 245 275 233 153 100 74 92 112 125 121 109 105 78 26 64 98 136 120 117 115 147 154 141 159 160 155 158 162 161 157 155 154 153 153 149 146 147 145 142 142 142 140 140 140 139 138 138 139 139 137 137 137 136 136 136 137 137 137 136 134 131 128 124 121 118 114 112 107 103 95 87 81 75 71 69 74 77 77 81 85 85 83 81 77 78
147 155 171 258 314 163 80 217 282 253 238 179 176 268 177 126 114 103 103 92 78 85 90 85 102 104 74 62 48 118 140 126 153 167 151 156 158 156 158 161 161 158 155 155 155 155 151 149 149 148 147 145 144 142 142 142 140 140 140 141 141 139 140 139 138 138 139 139 140 140 140 138 134 130 125 122 119 116 113 105 100 91 83 78 72 68 62 64 72 77 78 80 84 84 81 75 72
143 147 192 257 262 206 131 199 244 245 248 183 184 202 130 123 124 121 114 94 62 54 62 100 119 109 86 109 83 103 140 139 150 165 161 155 156 157 159 161 160 158 156 156 157 156 152 151 151 151 150 148 146 145 145 144 142 142 143 143 142 143 143 142 142 141 142 142 144 144 143 141 137 132 128 125 122 117 111 103 95 87 79 73 68 63 57 53 60 70 73 75 80 82 85 80 69
148 131 198 242 327 86 125 246 240 219 235 221 223 152 135 133 134 134 128 118 111 92 96 129 130 100 74 99 108 91 111 138 152 161 160 153 155 157 160 161 159 158 158 158 156 156 154 153 154 154 153 151 149 148 147 146 146 146 146 146 146 146 147 146 146 145 146 147 148 148 146 144 140 135 130 126 123 116 106 95 86 81 75 67 62 56 51 49 46 52 62 67 71 76 78 80 68
155 324 137 297 329 354 314 279 262 230 242 244 211 142 134 136 137 135 128 109 117 124 131 150 136 105 109 95 101 95 102 136 150 156 157 153 155 157 160 162 160 159 159 159 158 157 155 157 157 157 157 154 153 151 150 150 150 150 150 150 150 150 150 150 149 149 151 151 152 152 150 147 143 137 132 127 121 110 97 86 79 75 69 61 56 50 44 44 41 44 53 58 64 73 76 80 76
144 320 112 32 40 346 315 289 271 236 252 218 163 152 140 140 137 134 130 124 134 127 122 109 86 113 126 108 96 109 130 142 145 149 156 156 155 158 160 162 163 160 160 161 160 159 158 161 162 161 160 158 157 155 154 154 154 154 153 154 153 154 154 154 153 153 154 155 155 155 154 150 147 141 135 128 117 107 96 86 77 71 65 59 51 45 41 42 46 50 53 56 60 68 76 85 88
84 302 151 48 57 311 271 283 282 261 272 190 147 156 147 141 130 129 128 128 131 116 125 98 95 120 113 104 92 122 140 145 145 148 156 158 157 160 160 161 165 162 161 163 162 162 161 164 166 165 163 162 161 159 159 158 158 158 157 157 157 157 158 157 156 156 158 158 158 158 156 153 151 147 139 129 116 107 97 85 76 72 66 57 50 44 44 48 55 61 59 59 62 62 68 77 85
96 206 114 85 170 232 226 250 271 272 285 131 145 165 147 140 138 150 145 138 132 118 151 136 136 139 99 101 110 130 141 145 148 150 154 156 158 162 160 161 166 166 165 165 165 165 166 168 169 169 166 166 165 164 165 164 164 163 161 161 161 161 161 161 160 160 162 161 162 161 160 159 157 154 145 130 116 104 90 77 72 68 63 58 57 50 50 59 65 68 68 68 67 69 67 65 69
132 171 106 174 202 209 242 264 258 193 212 178 160 163 149 150 158 164 143 131 141 138 165 145 147 137 92 116 124 138 147 149 150 152 153 154 158 162 162 162 165 168 168 168 168 169 170 172 172 172 170 170 170 169 170 170 169 167 165 166 165 165 165 165 165 165 166 166 167 165 164 164 162 161 152 136 120 101 84 72 67 61 58 57 58 56 59 66 68 68 74 78 69 78 81 68 61
159 180 125 250 251 276 256 268 261 172 213 213 157 151 158 164 158 156 137 134 155 154 133 133 139 111 104 137 138 157 156 154 154 153 156 154 157 160 163 165 166 168 170 171 172 172 174 175 175 174 174 175 174 173 174 174 173 171 170 171 170 170 170 170 170 170 171 172 171 171 168 167 166 166 160 147 130 105 82 66 62 55 48 42 48 57 66 68 70 68 73 83 72 78 88 79 74
190 290 108 303 324 326 253 216 256 180 219 209 157 152 154 147 138 153 154 145 156 140 122 132 148 102 148 170 163 171 158 156 156 154 154 153 156 159 163 166 167 170 171 173 174 176 177 177 177 177 178 179 179 178 177 177 176 176 175 176 176 175 176 174 175 175 175 176 176 175 172 171 171 169 166 159 148 116 61 52 51 50 45 40 48 54 66 72 71 72 73 78 72 75 81 77 79
205 353 72 324 306 313 264 230 360 131 247 204 153 148 132 80 129 152 171 120 120 144 133 148 190 136 164 178 152 154 154 155 155 153 152 151 155 157 162 166 169 172 173 176 177 179 180 179 180 180 181 181 183 182 180 180 180 181 181 180 181 181 181 179 179 181 180 181 180 179 177 175 176 176 175 176 173 154 19 25 40 46 47 46 50 34 34 56 61 67 81 84 76 77 63 60 78
163 360 72 292 261 267 254 256 110 169 257 170 154 154 135 120 127 111 76 86 122 150 143 124 152 108 146 147 140 146 151 154 154 153 152 151 155 159 164 168 170 174 177 179 179 180 182 181 181 182 183 184 185 185 184 183 182 185 187 185 184 186 185 182 184 185 184 185 184 185 183 184 186 184 184 188 193 196 286 351 18 30 41 41 41 15 10 25 34 37 59 97 98 81 40 48 78
165 147 183 244 233 237 218 215 203 192 223 170 171 164 147 147 153 131 93 85 119 130 72 88 72 66 113 130 138 145 149 154 157 156 156 156 159 163 168 172 174 177 179 182 184 182 182 182 183 183 184 186 186 186 186 184 185 189 192 191 188 189 187 185 188 188 189 188 188 191 191 194 195 194 194 193 199 209 255 339 349 360 13 2 2 8 7 5 14 23 26 88 101 83 33 35 46
197 165 194 232 212 224 214 204 221 219 150 176 186 165 156 154 153 154 129 135 139 123 102 93 87 97 114 130 138 146 152 156 161 161 162 162 166 168 170 175 176 179 182 185 187 185 184 183 185 185 185 187 187 187 187 187 188 192 195 196 191 190 189 188 191 192 193 193 193 197 199 202 204 205 203 197 208 227 257 310 303 326 333 336 345 355 2 360 5 20 37 82 107 99 141 293 288
203 187 221 241 224 242 249 232 240 243 142 165 191 162 153 154 149 157 141 149 164 159 154 138 137 141 135 140 143 149 156 160 165 165 167 167 170 173 173 176 177 181 184 186 188 188 187 186 186 187 187 188 188 189 189 190 192 194 196 197 194 192 191 192 195 197 198 198 199 203 205 209 210 211 206 201 221 231 236 251 275 299 286 310 310 286 323 342 352 360 27 76 102 104 264 268 259
181 198 222 244 229 244 248 236 238 241 172 170 176 145 150 158 154 158 141 145 199 202 192 173 161 156 148 150 152 154 160 164 169 170 171 172 173 175 176 178 179 181 183 185 188 189 190 189 188 189 189 189 191 191 191 194 196 197 198 197 196 194 194 196 199 202 202 202 205 208 210 213 214 212 209 208 222 230 228 236 267 289 282 295 289 293 324 335 343 337 340 34 46 40 321 282 269
200 211 227 251 260 263 254 233 208 205 168 163 160 160 162 154 161 168 157 163 212 207 203 183 159 157 156 156 155 158 164 168 172 174 174 175 175 176 177 178 179 181 183 186 188 189 192 191 190 190 191 192 194 194 194 197 198 200 199 197 197 196 197 200 203 206 206 207 210 212 214 216 215 213 214 215 224 231 231 239 259 276 283 292 286 293 309 336 353 319 299 318 319 334 318 302 293
245 233 226 237 243 256 266 275 211 145 128 164 171 171 151 153 183 182 179 188 234 201 182 167 158 157 154 154 156 161 168 172 175 177 176 175 175 175 177 177 179 181 183 186 188 190 193 194 193 192 192 194 196 197 197 198 200 201 200 198 199 199 200 203 206 209 209 212 215 217 217 216 217 215 217 223 229 233 235 245 255 265 271 274 277 279 277 269 313 328 290 234 277 287 302 321 324
231 245 235 239 240 249 261 274 262 160 163 178 158 145 156 178 184 175 200 217 28 122 147 147 150 152 151 155 162 165 168 174 176 177 177 177 178 178 179 179 180 182 183 186 188 190 194 195 195 195 194 194 197 199 198 198 199 200 200 200 202 203 205 207 209 211 213 215 218 220 219 218 220 220 222 228 234 237 240 247 254 261 265 268 271 270 273 268 285 326 301 277 289 284 295 310 313
226 238 242 249 250 252 260 269 265 225 204 175 146 162 185 189 162 170 204 217 93 120 130 141 145 150 157 160 165 167 167 172 174 175 177 179 179 179 181 182 181 183 186 187 188 190 194 195 196 198 196 196 197 198 198 198 198 200 202 202 204 206 209 211 213 215 215 217 220 220 220 220 221 225 228 231 236 240 243 250 254 260 265 269 268 263 269 270 279 299 305 309 300 297 303 301 296
222 228 242 245 253 257 261 266 253 233 217 168 164 187 200 184 132 181 202 156 123 127 131 147 151 156 164 165 167 170 171 172 172 173 176 177 177 178 179 181 182 185 188 189 189 192 195 196 196 199 198 198 198 197 199 200 200 202 204 204 205 208 212 214 216 218 219 219 221 221 222 223 224 228 233 236 239 240 245 251 255 261 265 266 264 260 260 264 274 285 293 305 303 305 305 299 293
226 233 254 247 254 262 256 262 255 240 208 179 183 198 195 172 157 206 192 143 139 132 142 156 158 164 165 168 170 172 176 174 172 170 172 176 179 179 178 180 184 187 188 190 191 193 196 196 198 200 201 201 200 200 201 202 203 205 206 206 208 212 214 216 218 220 221 221 222 222 223 225 228 232 235 239 240 240 246 253 258 263 264 263 264 265 264 267 277 280 281 297 306 306 300 298 293
258 258 276 264 265 271 249 254 259 251 217 191 183 189 170 167 217 208 162 149 148 142 153 162 167 172 167 169 170 171 179 176 173 172 175 179 181 181 180 182 184 187 190 192 193 195 196 198 199 201 203 202 202 203 203 204 207 208 210 210 212 215 217 219 220 221 222 222 223 223 224 226 231 234 236 239 239 242 248 255 261 263 264 265 267 272 273 274 283 280 280 295 303 302 301 314 307
281 264 281 285 310 289 251 248 248 220 219 184 149 116 168 200 218 177 145 150 148 150 160 166 172 175 170 171 170 172 177 176 179 182 184 183 183 183 183 186 185 186 191 194 194 196 198 200 200 202 203 204 205 205 206 207 209 211 212 214 215 218 220 222 222 222 223 224 224 224 226 229 233 236 238 240 241 246 252 258 262 261 263 268 271 274 275 277 282 282 284 291 294 295 313 335 324
301 269 229 287 346 301 262 251 240 214 194 157 138 142 215 211 206 144 148 153 147 156 167 170 171 175 176 175 173 176 178 180 186 188 187 185 184 185 185 188 187 187 190 193 195 197 199 200 201 203 204 206 207 207 208 209 210 212 215 217 219 220 222 223 224 224 225 225 226 227 229 231 235 237 239 240 243 249 254 258 259 260 262 266 269 267 269 275 279 284 286 278 275 299 326 344 344
309 298 243 277 319 274 280 286 162 123 189 163 157 214 223 209 197 158 159 157 155 164 173 174 172 175 181 180 178 179 182 186 191 190 188 188 186 186 187 187 189 189 189 192 196 197 198 200 201 203 205 206 207 208 209 210 212 213 216 219 220 222 223 225 226 227 227 227 229 230 232 235 237 238 239 240 244 249 254 258 258 261 261 261 264 263 265 269 273 279 275 250 238 286 313 340 19
11 282 288 322 203 253 299 285 168 139 198 178 173 224 235 203 186 167 163 161 164 167 173 179 178 177 181 185 182 181 185 187 191 192 192 191 188 189 188 188 189 191 191 193 195 196 197 200 201 202 205 206 206 208 210 211 214 215 218 220 221 223 225 227 229 229 230 231 232 234 234 237 239 239 239 240 243 246 251 255 258 261 259 256 262 268 270 266 266 265 245 222 227 275 301 316 328
2 204 249 268 216 264 317 301 220 169 153 185 201 214 291 200 172 165 168 168 169 169 176 181 181 181 181 186 185 181 182 184 190 195 194 193 192 192 190 190 191 192 194 194 193 195 197 199 201 202 204 206 207 209 212 214 216 218 220 221 223 225 227 229 230 231 233 233 235 236 235 237 238 239 239 240 242 244 248 253 256 258 257 255 259 268 270 264 261 247 221 219 245 292 308 311 292
294 217 231 251 234 261 293 308 297 161 148 188 217 226 292 239 168 165 173 172 172 175 181 183 183 183 181 186 191 186 185 187 191 193 193 193 193 193 193 193 193 193 195 195 195 196 197 199 201 203 205 207 209 210 213 215 218 220 222 223 225 227 229 231 232 234 235 235 236 236 236 236 236 239 240 241 242 243 246 251 255 256 255 255 257 264 266 263 256 233 216 226 255 282 299 307 290
198 214 221 257 249 250 252 278 309 156 176 194 206 226 257 257 165 169 177 176 177 184 183 182 184 183 182 186 193 193 191 195 195 192 192 192 192 193 193 193 194 195 195 196 196 197 197 199 201 203 205 207 209 211 212 214 217 220 222 224 226 229 231 231 232 234 236 236 236 236 237 237 238 241 241 242 242 242 244 249 253 254 253 255 256 257 258 256 247 224 215 228 248 264 284 290 262
170 193 197 213 240 255 237 256 264 175 192 211 203 221 219 173 180 177 177 178 182 186 180 182 187 187 187 188 195 198 199 203 197 192 192 191 191 192 193 194 195 196 196 196 196 197 198 199 200 202 205 206 207 208 209 209 212 216 219 222 224 227 230 231 232 234 235 236 235 235 237 238 240 242 242 242 241 241 244 249 253 254 255 257 255 252 252 252 241 224 223 233 243 255 271 265 236
179 184 216 224 237 267 251 259 276 190 179 231 212 218 215 187 192 182 174 177 184 185 181 189 192 191 192 191 196 200 204 205 192 191 194 193 193 193 193 194 195 196 197 196 196 198 199 199 199 202 204 205 205 205 205 206 208 210 214 217 220 224 226 229 231 232 234 234 233 234 236 238 240 241 242 241 240 242 245 250 253 253 256 257 254 252 253 250 238 227 234 240 242 253 262 247 234
214 215 246 257 239 263 264 249 279 244 180 247 207 202 228 206 191 182 173 179 190 190 187 193 195 195 195 195 200 201 202 196 185 193 195 194 195 194 194 194 194 195 196 198 198 199 200 200 201 202 202 204 206 207 206 207 209 210 212 215 218 221 224 227 228 230 231 232 232 233 235 237 239 241 241 241 241 242 245 249 251 251 254 253 250 249 247 243 235 230 236 236 237 250 253 235 230
206 212 221 255 239 272 289 265 281 267 186 259 204 197 233 209 179 187 186 190 197 194 193 195 193 193 196 197 200 198 194 191 191 195 194 194 195 194 195 196 196 197 197 199 200 200 200 201 202 202 203 205 207 208 208 209 211 213 215 216 218 221 224 227 229 231 232 233 233 232 234 236 238 240 240 241 241 242 245 247 248 250 250 247 245 244 240 236 233 232 231 227 231 241 235 220 224
196 191 195 241 222 196 282 281 295 267 213 237 183 209 265 158 164 198 202 204 207 204 204 204 197 198 201 200 200 194 192 194 195 195 194 194 194 194 196 198 198 198 198 199 200 200 200 201 202 203 204 206 207 209 211 212 212 213 215 219 222 223 226 229 232 235 235 235 233 232 233 235 237 239 239 240 241 241 243 244 247 247 245 243 241 240 237 234 232 227 223 223 228 228 215 211 223
215 197 203 231 208 194 244 282 306 301 300 353 109 355 312 181 182 207 205 205 216 211 205 211 211 209 211 209 208 203 197 197 195 195 194 192 193 194 196 197 198 198 200 201 201 200 201 202 203 204 205 206 208 210 210 210 208 209 211 214 219 222 225 229 231 233 234 235 234 232 233 234 236 238 239 241 241 241 241 242 245 244 242 241 239 238 237 236 233 228 229 231 230 222 209 208 216
239 217 209 215 198 191 230 284 303 324 314 289 130 359 295 239 204 207 190 196 212 208 203 211 210 207 210 212 212 209 205 203 201 200 197 194 194 194 195 196 197 199 202 203 202 202 203 203 204 204 205 206 208 209 208 206 205 205 205 203 206 209 214 220 223 226 228 230 231 231 232 234 236 239 242 242 241 240 240 241 243 243 242 240 238 237 236 235 232 232 239 238 227 218 213 215 216
245 220 197 198 187 186 191 186 220 229 258 275 182 186 265 292 237 215 191 195 207 206 210 214 208 205 208 210 210 206 204 204 204 206 203 200 196 193 193 196 198 201 204 204 204 204 204 204 204 204 205 207 208 208 206 204 204 204 205 205 206 207 210 216 220 223 226 227 228 229 231 233 236 240 244 242 239 239 240 241 242 242 242 241 239 236 234 234 234 236 246 237 220 213 216 224 225
231 178 157 168 174 194 196 174 201 224 241 286 275 173 234 285 251 218 194 198 209 210 215 215 209 210 209 210 211 206 205 203 202 204 204 205 203 198 196 197 199 203 204 203 203 205 205 204 204 204 205 207 208 207 205 204 204 204 205 208 210 212 215 218 220 222 225 227 229 230 231 233 237 240 242 240 236 237 239 241 241 241 241 241 239 237 235 236 235 236 240 228 215 214 220 227 229
214 144 141 154 163 186 181 171 210 222 214 273 255 169 206 267 265 218 185 199 214 214 217 216 210 211 210 211 212 208 208 205 203 204 202 205 206 205 203 200 201 203 202 202 203 205 205 204 204 204 205 207 207 206 205 205 206 206 206 207 210 215 219 221 221 223 224 226 229 231 233 235 237 238 238 237 236 237 239 240 240 240 241 240 239 237 237 238 236 233 236 226 216 217 222 228 230
194 147 162 123 137 148 151 175 196 154 190 242 234 185 211 264 272 194 175 201 218 218 219 218 213 213 212 212 212 210 209 207 207 208 206 206 207 208 208 205 204 204 202 202 204 204 204 203 203 203 205 206 206 205 205 206 206 206 207 207 210 215 218 218 220 221 222 223 226 229 232 233 234 234 233 234 235 237 238 239 240 239 241 241 239 238 236 237 234 232 236 229 218 221 225 226 229
139 139 217 283 324 54 89 160 116 141 238 237 219 192 200 253 251 187 182 202 208 212 222 222 219 218 216 215 211 209 208 207 208 209 209 209 210 211 211 209 209 206 204 203 203 203 203 203 202 203 205 206 206 206 205 206 206 207 208 209 211 214 214 213 213 216 217 218 221 224 228 230 231 232 233 233 233 234 236 238 238 238 241 242 239 238 238 237 234 233 236 229 220 226 231 227 228
137 128 155 216 305 355 360 10 86 215 243 237 212 183 190 236 240 197 209 207 198 202 212 214 215 217 217 214 210 207 206 206 205 208 210 209 210 211 210 212 212 207 205 204 203 203 202 203 203 203 205 205 205 205 205 206 206 207 209 210 212 214 213 211 212 214 214 215 219 221 224 226 228 231 232 232 232 232 234 236 236 237 238 241 240 239 239 237 235 235 238 231 224 229 235 230 227
163 145 139 160 260 271 221 216 184 228 248 238 197 165 196 241 230 199 214 212 202 204 209 209 211 215 216 214 209 206 204 203 203 205 208 207 207 207 205 208 208 204 205 205 203 203 202 203 203 203 205 205 205 205 205 206 206 207 209 210 213 215 213 213 214 215 216 217 219 219 220 222 224 227 229 231 232 232 233 235 235 235 237 240 240 239 239 237 235 235 238 235 228 230 234 232 229
174 171 158 165 183 200 217 227 238 246 253 240 186 158 224 272 239 198 203 208 208 207 212 213 213 215 216 214 208 203 201 202 204 204 205 207 207 206 204 206 205 202 203 204 204 203 202 202 203 204 206 205 204 205 205 206 207 208 209 210 213 214 213 213 214 216 217 219 219 219 221 222 223 226 229 232 233 233 234 235 236 237 239 241 241 240 239 237 235 235 238 238 232 231 234 233 232
181 163 139 168 184 179 196 204 216 243 255 256 183 160 213 246 235 206 195 202 206 205 214 216 218 221 219 216 206 199 201 202 204 205 205 208 207 204 204 205 205 204 203 203 203 203 202 202 203 204 206 205 204 204 205 206 208 209 209 211 212 213 213 214 214 216 217 219 220 220 222 223 224 228 231 233 234 234 234 235 236 238 239 241 241 239 239 237 236 235 237 240 236 234 234 232 232
187 131 133 199 189 159 198 201 180 188 285 274 212 205 227 226 261 247 203 203 204 205 215 216 223 229 224 216 201 198 204 202 202 206 207 209 208 205 204 205 206 205 204 204 204 202 202 203 203 204 206 205 204 204 205 207 208 208 209 210 212 213 214 214 214 216 217 219 221 221 223 225 227 229 232 233 234 234 234 234 235 237 238 240 240 239 239 238 237 236 236 239 237 234 232 230 232
166 156 185 200 156 144 216 246 185 126 265 266 208 234 278 269 280 273 203 203 206 207 216 216 224 231 223 210 200 201 204 201 201 204 206 208 206 205 205 205 206 205 204 205 205 204 204 203 203 205 206 205 205 205 205 207 208 208 209 210 211 212 213 214 215 216 217 219 220 222 224 226 228 230 231 232 234 234 234 233 234 236 237 238 239 239 239 239 238 237 237 238 239 236 231 229 232
137 189 192 128 94 148 173 234 275 232 247 275 220 218 252 239 263 265 185 200 214 211 214 217 226 231 223 213 207 206 203 201 202 204 206 206 205 205 205 206 206 205 204 206 206 206 205 205 205 205 205 205 205 205 205 206 207 207 209 210 210 211 212 214 216 217 217 218 219 221 223 225 228 230 230 232 233 234 234 233 233 235 236 237 238 238 239 239 238 238 237 238 241 238 233 230 233
167 184 175 136 155 199 164 186 227 218 236 283 284 243 230 210 234 230 193 205 216 216 213 216 224 226 221 219 215 210 204 200 201 204 206 205 205 206 205 206 207 206 206 207 207 206 205 207 207 207 207 207 206 205 205 206 207 207 209 210 211 212 213 214 216 217 217 217 219 220 222 225 227 229 229 230 232 232 232 232 231 233 235 236 238 238 239 239 238 237 236 236 238 238 234 232 233
191 129 166 167 167 182 172 180 189 192 223 263 286 275 245 224 209 188 201 210 210 213 212 212 218 217 215 219 218 210 201 198 200 202 205 204 205 206 205 205 206 205 207 207 205 204 205 208 208 209 210 209 207 206 206 207 208 208 210 210 211 211 212 214 216 216 217 217 219 220 221 224 226 227 228 228 230 231 232 231 230 231 233 234 236 237 238 238 238 237 236 234 235 236 235 235 235
189 167 186 187 152 149 168 202 187 173 199 212 245 267 260 246 204 183 201 213 210 210 210 213 217 213 213 218 217 208 199 200 202 201 202 204 205 206 205 206 206 206 206 205 202 202 205 207 208 209 210 208 206 207 207 208 208 209 210 210 211 212 212 214 216 216 217 218 220 220 221 223 224 225 226 226 228 230 231 231 229 230 232 233 235 236 237 237 236 237 236 234 234 235 236 236 236
186 192 194 183 168 126 146 235 248 182 199 190 192 254 262 248 199 187 200 213 216 213 209 215 222 217 217 222 220 209 201 203 203 201 202 202 203 204 205 205 204 204 204 202 201 202 204 206 207 209 208 207 207 207 207 208 208 208 210 211 211 212 212 214 215 216 217 218 220 220 220 221 222 223 225 226 227 229 230 230 229 230 231 232 234 236 236 235 236 236 234 232 232 233 235 236 236